Powrót do katalogu

STARLINK-34488

AktywnyŁącznośćVLEO
NORAD 64604·PAYLOAD·🇺🇸 United States

Wystrzelony Jun 25, 2025 z Cape Canaveral Space Force Station

Loading…

Następne Przeloty (najbliższe 24 godziny)

TLE

ŚwieżeSource: CelesTrak SupGP

Epoka: Sep 14, 2026, 15:22 UTC

1 64604C 25137L   26257.64076389  .00071328  00000+0  21077-2 0  2579
2 64604  53.1595 176.8618 0001263  95.9642 287.2957 15.34350931    19

Śledź STARLINK-34488 w czasie rzeczywistym z AllMySat

Download on the App Store